Volver al catálogo

STARS-AO

ActivoRadioaficionadoPO
NORAD 43679·PAYLOAD·🇯🇵 Japan

Lanzado Oct 29, 2018 desde Tanegashima Space Center

Loading…

Próximos Pases (próximas 24 horas)

TLE

ActualizadoSource: Space-Track

Época: Sep 14, 2026, 08:32 UTC

1 43679U 18084J   26257.35577893  .00004680  00000-0  23461-3 0  9996
2 43679  98.0373 116.8344 0001482 173.7371 186.3880 15.17892386430991

Sigue STARS-AO en tiempo real con AllMySat

Download on the App Store